Torna al catalogo

STARLINK-3943

AttivoComunicazioniVLEO
NORAD 52557·PAYLOAD·🇺🇸 United States

Lanciato May 13, 2022 da Vandenberg Space Force Base

Loading…

Prossimi Passaggi (prossime 24 ore)

TLE

AggiornatoSource: CelesTrak SupGP

Epoca: Sep 14, 2026, 20:59 UTC

1 52557C 22051AA  26257.87479167 -.00028258  00000+0 -83521-3 0  2570
2 52557  53.1591 348.3734 0000968  78.6761 313.3911 15.34392987    13

Traccia STARLINK-3943 in tempo reale con AllMySat

Download on the App Store